Regional Weather Roundup
Issued by NWS

Home | Current Version | Previous Version | Text Only | Print | Product List | Glossary Off
Versions: 1 2 3 4 5 6 7 8 9 10 11 12 13 14 15 16 17 18 19 20 21 22 23 24 25 26 27 28 29 30 31 32 33 34 35 36 37 38 39 40 41 42 43 44 45 46 47 48 49 50

000
ASUS43 KDTX 240410
RWRMI
MICHIGAN HOURLY REGIONAL WEATHER ROUNDUP
NATIONAL WEATHER SERVICE DETROIT/PONTIAC MI
1200 AM EDT WED SEP 24 2014

NOTE: "FAIR" INDICATES FEW OR NO CLOUDS BELOW 12,000 FEET WITH NO
SIGNIFICANT WEATHER AND/OR OBSTRUCTION TO VISIBILITY.

MIZ047>049-052>055-059>063-066>070-074>076-081>083-240500-
SOUTHEAST LOWER MICHIGAN

CITY           SKY/WX    TMP DP  RH WIND       PRES   REMARKS
ADRIAN         CLEAR     52  50  93 CALM      30.37R
ALMA           FOG       51  50  97 CALM      30.36R VSB 1/4
ANN ARBOR      FOG       46  43  89 CALM      30.37R VSB 3/4
BAD AXE        CLEAR     51  51 100 CALM      30.37R
DETROIT CITY   CLEAR     57  48  72 CALM      30.37S
DETROIT        PTCLDY    56  50  80 CALM      30.37R
GROSSE ILE     CLEAR     57  52  82 CALM      30.36R
HILLSDALE      CLEAR     53  50  90 SE3       30.36S
HOWELL         CLEAR     54  51  90 CALM      30.36S

CITY           SKY/WX    TMP DP  RH WIND       PRES   REMARKS
JACKSON        CLEAR     52  49  89 SE3       30.36R
LAMBERTVILLE   CLEAR     52  50  93 CALM      30.37R
LANSING        CLEAR     54  52  93 CALM      30.36R
LAPEER         NOT AVBL
MASON          CLEAR     52  50  93 SE3       30.36R
MONROE         CLEAR     52  48  87 CALM      30.35R
MT. CLEMENS    CLEAR     53  53  99 CALM      30.35S
PONTIAC        CLEAR     52  49  89 CALM      30.36R
PORT HOPE        N/A     59  51  75 SW5       30.34R
PORT HURON       N/A     48  48 100 CALM      30.38R FOG
TRI CITIES     CLEAR     58  53  84 S5        30.36R
YPSILANTI      CLEAR     55  49  80 CALM      30.37R
$$
MIZ043>046-050>051-056>058-064>065-071>073-077>080-240500-
SOUTHWEST LOWER MICHIGAN

CITY           SKY/WX    TMP DP  RH WIND       PRES   REMARKS
BATTLE CREEK   CLEAR     55  51  86 CALM      30.36R
BENTON HARBOR  CLEAR     48  47  96 CALM      30.33S
BIG RAPIDS     CLEAR     52  52 100 CALM      30.34S
COLDWATER      CLEAR     51  49  95 CALM      30.35R
HOLLAND        CLEAR     51  48  89 CALM      30.35R
GRAND RAPIDS   CLEAR     54  52  93 CALM      30.35R
KALAMAZOO      CLEAR     52  50  93 CALM      30.35S
MARSHALL       CLEAR     49  48  96 CALM      30.35R
MUSKEGON       CLEAR     50  48  93 CALM      30.34R
$$
MIZ016>042-240500-
NORTHERN LOWER MICHIGAN

CITY           SKY/WX    TMP DP  RH WIND       PRES   REMARKS
ALPENA         CLEAR     51  50  96 CALM      30.35R
BEAVER ISLAND  CLEAR     52  51  97 CALM      30.32R
BELLAIRE         N/A     51  50  95 CALM      30.33S FOG
CADILLAC       FOG       48  48 100 CALM      30.34S VSB 1
CHARLEVOIX     CLEAR     56  55  97 CALM      30.35R
FRANKFORT      CLEAR     50  47  89 CALM      30.33R
GAYLORD        CLEAR     51  50  96 CALM      30.35R
GRAYLING       FOG       49  49 100 NW3       30.35S VSB 1
HARBOR SPRINGS PTCLDY    54  53  95 NE5       30.33R
HOUGHTON LAKE  FOG       49  49 100 CALM      30.35S VSB 3/4
MANISTEE       CLEAR     48  45  87 E3        30.34R
OSCODA         CLEAR     53  51  94 CALM      30.34R
PELLSTON       CLEAR     49  48  97 CALM      30.34R
TRAVERSE CITY  CLEAR     54  51  90 CALM      30.32R
$$
MIZ007>008-015-240500-
EASTERN UPPER MICHIGAN

CITY           SKY/WX    TMP DP  RH WIND       PRES   REMARKS
KINROSS        CLEAR     55  55 100 S3        30.32S
MACKINAC ISLAN CLEAR     54  53  96 SW5       30.32S
NEWBERRY       CLEAR     54  53  97 S12       30.31R
S. S. MARIE    CLEAR     55  53  93 CALM      30.33R
$$
MIZ004>006-011>014-085-240500-
CENTRAL UPPER MICHIGAN

CITY           SKY/WX    TMP DP  RH WIND       PRES   REMARKS
MANISTIQUE     CLEAR     55  54  97 S5        30.30R
ESCANABA       CLEAR     55  52  88 S3        30.29R
MENOMINEE      CLEAR     57  52  82 S3        30.28S
SAWYER-GWINN   CLEAR     57  53  88 S8        30.28R
$$
MIZ001>003-009>011-084-240500-
WESTERN UPPER MICHIGAN

CITY           SKY/WX    TMP DP  RH WIND       PRES   REMARKS
IRON MOUNTAIN  CLEAR     55  52  89 SE3       30.27R
HOUGHTON       CLEAR     52  48  86 CALM      30.23R
COPPER HARBOR    N/A     56  49  77 W8        30.21S
IRONWOOD       CLEAR     59  52  77 S7        30.21R
$$

ABBREVIATIONS USED IN REMARKS
   TC - TEMPERATURE IN CELSIUS
  WCI - WIND CHILL INDEX
   HX - HEAT INDEX
  VSB - VISIBILITY



USA.gov is the U.S. government's official web portal to all federal, state and local government web resources and services.